Location: Potomac
(46.8816°N, 113.5795°W)
Time: 13:00:44
(UTC+00:00)

Gurwin Techsat 1B - Pass Details

Date: 04 July 2022
Orbit: 812 x 813 km, 98.8° (Epoch: 13 August)

Event Time Altitude Azimuth Distance (km) Brightness Sun altitude
Rises 10:56:22 0° 9° (N) 3,347 12.8 -7.3°
Reaches altitude 10° 10:58:48 10° 3° (N) 2,411 11.9 -7.0°
Maximum altitude 11:03:51 45° 293° (WNW) 1,096 9.2 -6.4°
Drops below altitude 10° 11:08:52 10° 221° (SW) 2,396 10.4 -5.7°
Enters shadow 11:09:42 - 219° (SW) 2,709 10.7 -5.6°
